Miscellaneous Local Product
Issued by NWS Hastings, NE

Home | Current Version | Previous Version | Text Only | Print | Product List | Glossary Off
Versions: 1 2 3 4 5 6 7 8 9 10 11 12 13 14 15 16 17 18 19 20 21 22 23 24 25 26 27 28 29 30 31 32 33 34 35 36 37 38 39 40 41 42 43 44 45 46 47 48 49 50

000
AXUS43 KGID 010902
MISGRI

GID CWA HOURLY WEATHER ROUNDUP
NATIONAL WEATHER SERVICE HASTINGS NE
400 AM CDT SAT AUG 01 2015

NOTE: "FAIR" INDICATES FEW OR NO CLOUDS BELOW 12,000 FEET WITH NO
SIGNIFICANT WEATHER AND/OR OBSTRUCTIONS TO VISIBILITY.

...SOUTH CENTRAL NEBRASKA...

CITY           SKY/WX    TMP DP  RH WIND       PRES   REMARKS
GRAND ISLAND   CLOUDY    67  62  84 MISG      30.11R THUNDER
HASTINGS       MOCLDY    68  63  84 NE8       30.08R
KEARNEY        CLEAR     70  61  73 SW12      30.07S
ORD            MOCLDY    64  63  96 E6        30.08S
YORK           MOCLDY    63  61  94 N3        30.09S
AURORA         LGT RAIN  66  64  94 S9        30.08F
LEXINGTON      PTCLDY    69  63  83 SW5       30.09F
HOLDREGE       PTCLDY    67  62  84 S6        30.09F
HEBRON         CLEAR     66  63  89 CALM      30.06F

...NEBRASKA PANHANDLE...

CITY           SKY/WX    TMP DP  RH WIND       PRES   REMARKS
CHADRON        CLEAR     60  53  77 CALM      30.07F
ALLIANCE       CLEAR     59  54  83 SE8       30.12F
SCOTTSBLUFF    CLEAR     65  55  70 E9        30.12F
SIDNEY         CLEAR     66  56  70 SW12      30.17F

...WESTERN AND NORTH CENTRAL NEBRASKA...

CITY           SKY/WX    TMP DP  RH WIND       PRES   REMARKS
VALENTINE      MOCLDY    68  61  78 E7        30.11S
AINSWORTH      MOCLDY    66  63  90 N14       30.13R
ONEILL         PTCLDY    66  65  96 W3        30.09R
BROKEN BOW     CLEAR     68  61  78 S3        30.08F
IMPERIAL       CLEAR     67  58  72 SW8       30.12F
NORTH PLATTE   CLEAR     68  61  78 SE6       30.10F
MCCOOK         PTCLDY    73  52  47 SE14      30.13F

...EASTERN NEBRASKA...

CITY           SKY/WX    TMP DP  RH WIND       PRES   REMARKS
NORFOLK        CLEAR     61  59  93 CALM      30.06F
SO SIOUX CITY  CLEAR     68  64  87 CALM      30.04F
TEKAMAH        CLEAR     63  61  93 CALM      30.04F
COLUMBUS       PTCLDY    59  54  82 NW3       30.08S
ALBION         PTCLDY    59  57  92 CALM      30.08F
OMAHA EPPLEY   CLEAR     71  67  87 SE6       30.04F
MILLARD        CLEAR     69  67  93 CALM      30.05F
LINCOLN        CLEAR     64  62  93 CALM      30.07F
NEBRASKA CITY  CLEAR     66  66  98 N5        30.06F
BEATRICE       CLEAR     67  64  90 CALM      30.06F
FALLS CITY     PTCLDY    73  69  87 S3        30.03F

...NORTHERN KANSAS...

CITY           SKY/WX    TMP DP  RH WIND       PRES   REMARKS
GOODLAND       CLEAR     68  60  75 SW16      30.17F
HILL CITY      CLEAR     72  66  81 SW9       30.12R
NORTON         MOSUNNY   70  61  73 W5        30.13R
PHILLIPSBURG   CLEAR     72  66  83 CALM      30.09S
SMITH CENTER   CLEAR     68  64  88 S5        30.09S
HAYS           CLEAR     70  61  73 SW6       30.11S
RUSSELL        CLEAR     70  68  93 S8        30.09S
CONCORDIA      CLEAR     68  65  90 CALM      30.08R
SALINA         CLEAR     72  67  84 S5        30.07F
TOPEKA         CLEAR     72  68  87 CALM      30.05F



USA.gov is the U.S. government's official web portal to all federal, state and local government web resources and services.